Wind_Speed
37 37 35 32 32 35 39 38 35 35 33 29 29 25 16 21 26 19 25 39 53 62 69 70 64 66 66 55 63 64 50 58 64 62 59 54 43 58 40 40 63 59 34 42
37 36 35 37 40 39 39 39 33 33 29 26 21 11 6 7 8 6 7 25 45 58 68 69 62 64 58 62 51 44 47 41 57 80 71 64 72 67 77 68 51 35 41 29
41 37 36 37 36 38 39 37 31 30 29 26 20 10 8 10 9 6 6 8 23 48 58 60 59 58 60 62 62 63 61 42 64 72 63 56 66 64 42 37 52 51 35 44
38 36 37 35 38 39 39 31 32 30 30 22 22 9 13 13 11 11 11 13 14 25 50 57 52 50 58 61 52 62 65 56 64 73 56 65 54 47 36 40 33 40 38 38
32 30 33 36 36 37 33 33 31 29 29 24 21 16 12 14 13 12 15 18 20 25 29 39 45 52 56 51 58 60 66 38 41 28 31 45 40 37 40 41 41 42 40 39
36 39 39 36 36 37 34 29 29 28 26 28 17 20 15 15 15 18 19 19 22 22 24 27 33 35 37 58 50 49 42 30 30 28 33 34 36 39 41 44 45 45 44 41
32 34 36 35 33 32 29 29 26 26 25 23 20 24 20 26 22 20 21 22 23 26 26 23 25 26 28 32 29 39 37 29 28 31 34 39 44 44 43 39 39 38 39 39
22 32 38 31 28 27 28 30 24 18 17 15 27 25 20 29 26 25 26 28 30 30 30 28 28 29 32 30 29 24 25 29 32 36 44 46 47 45 39 36 34 34 34 36
18 22 30 35 29 28 27 30 25 26 25 26 17 19 25 26 26 27 28 30 31 34 37 39 35 34 38 38 36 36 37 36 32 32 32 40 44 47 40 38 37 36 39 42
15 19 24 28 30 28 28 23 27 24 23 22 18 22 17 26 24 25 29 29 30 33 35 37 41 42 41 45 44 45 41 39 38 39 42 42 41 41 42 42 44 46 48 52
9 13 20 19 25 24 31 29 28 25 24 21 20 20 29 30 21 19 22 25 32 32 31 31 36 43 46 47 49 48 48 47 45 46 48 48 48 48 46 45 45 50 51 52
13 12 15 17 19 19 28 27 26 27 27 28 23 22 27 28 22 21 23 25 23 28 26 29 30 33 42 49 51 52 52 52 52 51 52 53 52 51 50 49 48 48 49 53
17 19 18 24 24 21 21 21 23 24 23 23 21 19 25 22 24 24 27 27 26 27 30 31 29 31 34 37 44 48 50 50 48 49 48 49 49 51 53 55 54 55 56 58
19 21 20 18 26 25 23 26 24 24 24 21 26 23 27 26 25 29 30 30 30 31 31 31 29 30 29 30 35 40 43 48 48 49 49 50 51 52 57 59 61 62 63 62
19 21 22 23 20 23 25 24 26 28 26 29 25 30 28 29 32 34 36 37 38 37 36 36 35 37 40 37 35 39 37 44 49 51 54 52 51 56 60 63 65 67 67 64
21 22 22 24 24 24 24 24 24 24 26 29 31 32 34 33 35 37 38 41 43 44 44 40 40 41 43 41 44 47 48 45 44 46 47 47 54 58 60 63 62 62 64 66
23 24 24 25 23 25 26 24 25 27 29 31 32 36 34 37 37 39 41 42 45 47 49 48 46 46 45 46 47 50 51 53 48 53 52 52 52 53 53 56 59 62 65 68
22 23 22 24 23 25 27 23 26 28 30 31 32 34 36 37 39 40 41 42 43 44 43 42 42 42 44 45 46 48 51 55 55 56 57 59 58 60 61 62 65 67 71 72
22 22 22 23 23 25 24 23 25 26 28 29 32 34 37 37 38 39 37 35 31 30 32 33 35 36 35 35 36 38 40 44 48 54 56 58 59 61 64 64 66 67 66 62
20 21 22 22 22 23 23 23 24 25 28 29 32 34 36 35 34 34 29 29 28 25 25 29 32 30 28 30 30 30 32 34 36 39 42 45 48 50 51 53 52 51 53 55
19 21 21 21 21 22 23 23 24 26 28 30 31 33 33 32 31 30 30 29 31 34 35 31 32 33 31 31 30 32 33 34 33 33 34 36 39 43 44 45 49 51 52 51
19 19 19 20 21 22 22 24 25 26 29 32 31 30 29 30 30 31 32 33 34 35 35 35 35 36 37 37 37 35 35 34 33 34 36 39 41 41 43 43 42 44 45 45
18 19 18 20 21 23 23 25 28 29 31 33 30 31 32 34 33 34 35 37 37 39 39 39 38 37 40 40 39 38 36 34 34 34 37 35 33 32 33 35 36 35 39 41
18 17 19 20 22 24 26 28 30 31 31 33 32 32 35 37 38 38 39 41 43 44 45 45 45 43 41 41 38 35 32 30 29 24 22 24 25 27 25 28 31 32 37 42
17 16 19 21 23 27 29 29 30 31 31 29 29 29 31 34 37 38 40 40 39 37 38 38 35 33 33 31 28 25 19 17 18 18 18 16 17 19 20 23 27 31 36 40
16 19 21 24 27 26 29 29 28 28 28 28 30 31 33 34 34 31 27 25 23 21 18 18 21 22 19 16 15 13 14 15 9 6 8 10 12 13 16 21 26 31 34 40
Wind_Direction
237 238 238 237 233 233 234 235 238 241 247 249 250 254 259 255 251 253 243 239 236 233 236 237 236 238 240 250 249 245 239 242 239 238 214 241 211 217 214 238 238 234 243 238
233 236 234 233 233 230 236 232 230 239 242 244 246 258 275 270 277 302 277 235 233 229 232 233 233 234 235 234 237 221 230 243 248 238 239 254 238 252 231 235 252 248 238 251
228 226 227 231 232 228 233 228 223 230 235 241 248 254 253 251 253 276 297 294 259 234 230 236 236 237 232 243 238 235 237 247 253 258 263 240 246 236 231 227 221 238 260 248
227 214 222 225 228 225 229 222 222 225 234 236 242 237 256 257 254 250 252 253 255 251 243 239 242 245 248 242 230 221 229 225 232 234 237 246 255 250 254 252 254 250 256 258
221 212 214 221 226 227 224 219 219 221 235 238 243 245 235 259 262 252 257 248 245 248 251 256 260 252 251 242 235 254 259 257 246 238 251 259 276 282 292 293 291 291 276 267
222 206 211 216 224 226 223 221 225 222 232 241 240 240 244 253 249 249 265 264 258 253 253 254 257 256 253 256 264 257 236 236 270 260 267 276 277 278 276 273 276 277 277 273
225 216 210 216 221 222 220 229 228 233 235 248 241 236 236 239 250 255 257 262 261 259 263 257 258 249 238 245 240 262 261 274 268 261 260 263 264 265 269 270 271 268 262 259
234 221 209 214 221 226 224 227 219 226 234 248 255 248 247 247 255 256 254 253 251 254 259 261 249 242 232 232 230 248 247 251 250 249 250 253 261 263 263 260 248 244 242 244
234 217 222 215 214 220 219 227 227 218 224 211 236 269 252 258 257 259 260 256 254 251 249 249 252 240 236 238 234 237 241 244 240 246 251 249 255 261 255 253 239 243 249 247
222 227 239 228 221 221 221 226 228 233 230 240 253 253 251 268 260 262 261 259 254 252 252 252 248 248 243 235 238 240 244 244 244 246 249 249 250 253 253 253 250 253 253 252
203 202 230 245 228 227 230 231 233 215 223 236 240 248 246 258 265 266 260 258 260 258 256 252 250 244 244 245 241 242 246 249 247 250 250 249 250 252 252 259 257 255 256 259
223 223 229 236 248 236 236 240 231 239 239 244 242 232 250 252 264 268 262 264 263 247 258 256 252 252 248 246 247 248 251 252 252 253 258 252 251 251 253 260 264 263 263 263
225 223 232 236 235 243 245 243 228 228 236 244 252 255 258 262 268 268 271 271 271 260 257 258 258 250 248 251 249 249 250 251 252 251 250 251 251 250 255 259 263 264 266 270
221 227 232 224 229 235 240 240 226 236 240 248 253 253 269 270 273 275 276 278 280 279 275 268 264 256 251 237 243 249 252 251 249 247 251 254 251 252 256 260 262 265 268 271
227 226 226 232 239 230 239 236 237 242 251 255 258 262 265 268 272 276 279 281 282 282 278 272 266 259 258 254 246 253 244 247 247 249 250 253 254 254 256 260 264 267 269 270
231 232 230 233 236 238 237 238 241 245 250 257 261 264 265 268 271 272 276 278 279 279 275 275 270 266 261 256 250 250 259 253 243 241 245 250 255 256 258 259 264 268 271 274
226 226 228 233 235 238 242 241 247 250 255 260 265 268 274 272 272 271 273 275 275 276 276 275 271 268 265 262 257 255 255 238 247 248 251 256 262 263 267 268 269 270 272 275
230 231 231 238 238 242 245 247 252 256 260 265 269 272 273 275 276 277 277 276 274 272 273 274 273 271 268 265 261 258 256 252 248 248 257 261 265 266 268 271 273 273 275 276
230 235 238 240 243 250 253 257 259 261 266 267 270 273 276 277 278 277 276 276 271 266 268 273 275 274 270 268 268 267 265 263 261 260 262 265 268 270 272 275 276 277 280 281
236 239 238 239 242 250 256 258 262 266 268 271 273 275 276 275 272 272 273 268 263 246 268 270 270 271 274 270 267 266 267 265 265 265 267 269 273 275 275 275 277 280 282 282
235 238 241 243 248 254 262 265 268 268 274 274 271 270 269 267 267 271 267 268 263 259 267 271 271 272 271 265 266 269 269 265 263 265 268 270 272 272 275 281 283 283 283 286
238 241 246 253 257 259 261 266 269 270 268 273 270 265 263 263 267 270 269 269 270 269 269 267 265 264 264 263 264 265 267 266 267 268 270 271 272 277 280 282 285 287 287 287
241 244 248 253 259 264 268 268 272 275 275 275 271 263 258 259 268 273 272 270 269 270 270 270 268 265 264 266 267 268 265 266 270 271 269 271 275 276 280 283 285 285 287 288
244 247 254 257 261 268 276 279 279 277 275 276 271 263 259 262 267 271 272 272 272 272 271 269 268 266 263 264 266 268 268 268 266 261 263 267 271 278 280 285 287 290 292 298
250 252 260 267 271 275 277 280 280 278 276 272 270 269 267 268 271 275 277 277 277 275 272 269 268 265 264 267 267 263 249 241 249 254 263 268 275 282 288 295 301 305 308 309
258 261 267 271 273 277 277 276 275 274 273 273 273 273 275 277 279 279 280 283 286 286 282 270 262 258 254 239 230 236 240 235 263 281 279 289 287 298 308 316 316 317 317 321
Height
5724 5728 5733 5735 5738 5741 5744 5747 5752 5754 5756 5758 5757 5756 5757 5757 5758 5759 5763 5768 5771 5776 5779 5781 5788 5793 5796 5799 5803 5811 5809 5813 5823 5824 5810 5820 5806 5817 5826 5835 5829 5830 5828 5827
5716 5720 5723 5724 5728 5732 5736 5740 5745 5747 5748 5750 5749 5750 5751 5750 5750 5752 5754 5757 5761 5767 5769 5773 5778 5782 5788 5793 5796 5794 5804 5792 5804 5802 5808 5807 5810 5805 5805 5813 5827 5816 5812 5819
5705 5709 5712 5715 5720 5725 5729 5734 5737 5740 5741 5743 5744 5746 5746 5747 5745 5747 5750 5753 5756 5760 5763 5765 5769 5776 5776 5779 5781 5791 5792 5788 5792 5794 5797 5799 5803 5796 5802 5800 5805 5802 5802 5810
5695 5698 5704 5708 5712 5718 5722 5729 5731 5734 5734 5738 5739 5744 5742 5742 5742 5743 5744 5747 5751 5756 5759 5759 5761 5766 5769 5777 5770 5773 5778 5778 5782 5781 5785 5790 5788 5787 5792 5795 5800 5803 5800 5804
5691 5694 5698 5701 5706 5711 5718 5720 5723 5726 5728 5731 5735 5738 5740 5739 5740 5741 5741 5742 5744 5747 5751 5754 5755 5761 5762 5764 5766 5761 5765 5770 5770 5770 5774 5778 5779 5782 5783 5782 5784 5789 5793 5793
5682 5685 5689 5695 5699 5703 5709 5714 5718 5722 5723 5724 5731 5732 5737 5740 5737 5737 5737 5738 5739 5741 5743 5745 5747 5748 5752 5754 5757 5759 5758 5757 5762 5765 5769 5771 5774 5776 5776 5776 5778 5780 5779 5781
5675 5679 5683 5689 5693 5699 5704 5710 5715 5719 5719 5721 5726 5726 5730 5729 5729 5732 5733 5733 5734 5735 5736 5737 5738 5740 5742 5746 5749 5752 5754 5754 5757 5760 5764 5766 5766 5768 5768 5768 5769 5770 5771 5774
5671 5675 5678 5684 5689 5695 5699 5704 5709 5716 5720 5724 5717 5719 5725 5721 5723 5724 5725 5726 5728 5729 5730 5731 5732 5733 5734 5738 5742 5744 5747 5750 5753 5756 5758 5759 5759 5758 5760 5761 5762 5762 5763 5763
5669 5672 5674 5678 5684 5688 5693 5695 5702 5706 5709 5711 5715 5714 5714 5714 5715 5716 5717 5718 5719 5720 5722 5723 5725 5728 5728 5730 5733 5737 5741 5743 5746 5749 5750 5750 5750 5751 5753 5753 5754 5753 5754 5753
5666 5669 5671 5673 5679 5682 5685 5692 5694 5697 5703 5707 5710 5711 5713 5706 5707 5709 5708 5709 5710 5710 5712 5714 5716 5718 5722 5724 5727 5729 5732 5735 5737 5737 5738 5739 5741 5743 5744 5743 5743 5743 5743 5742
5662 5666 5670 5669 5673 5678 5680 5684 5687 5692 5696 5699 5704 5707 5698 5701 5700 5701 5700 5701 5702 5703 5704 5704 5705 5708 5711 5715 5719 5721 5723 5725 5727 5727 5728 5729 5730 5731 5732 5733 5732 5732 5732 5731
5658 5660 5663 5666 5665 5670 5674 5678 5680 5682 5686 5688 5692 5696 5691 5692 5693 5694 5694 5693 5694 5695 5697 5698 5698 5699 5701 5703 5706 5709 5711 5712 5714 5715 5716 5716 5717 5719 5720 5720 5719 5720 5720 5720
5653 5656 5658 5660 5663 5665 5667 5670 5673 5675 5678 5681 5684 5687 5684 5685 5686 5685 5684 5684 5686 5688 5689 5690 5690 5690 5691 5692 5693 5694 5697 5699 5700 5701 5701 5703 5704 5705 5707 5708 5708 5707 5707 5706
5647 5650 5653 5656 5657 5659 5662 5665 5667 5670 5673 5677 5676 5679 5676 5676 5677 5675 5675 5676 5677 5678 5679 5680 5680 5681 5683 5683 5684 5685 5686 5687 5688 5689 5690 5692 5693 5694 5696 5696 5696 5696 5695 5694
5642 5645 5648 5649 5649 5654 5656 5658 5660 5663 5666 5666 5670 5668 5669 5669 5668 5667 5666 5666 5666 5667 5667 5667 5669 5669 5670 5672 5674 5675 5676 5678 5679 5680 5681 5683 5684 5684 5685 5685 5685 5685 5683 5681
5636 5639 5641 5643 5645 5647 5650 5652 5654 5656 5658 5658 5659 5660 5659 5661 5660 5659 5658 5657 5655 5654 5654 5656 5656 5657 5657 5659 5660 5662 5663 5665 5666 5667 5668 5671 5672 5673 5673 5673 5671 5670 5668 5666
5629 5632 5635 5638 5640 5641 5643 5646 5647 5649 5649 5650 5650 5648 5651 5649 5650 5649 5647 5646 5644 5642 5640 5642 5643 5644 5644 5645 5646 5647 5648 5651 5653 5655 5656 5658 5658 5658 5658 5657 5656 5655 5652 5649
5622 5625 5628 5631 5633 5635 5635 5639 5639 5640 5640 5641 5640 5639 5637 5637 5636 5635 5634 5633 5632 5631 5630 5629 5630 5631 5632 5632 5634 5635 5636 5638 5640 5641 5642 5643 5644 5644 5644 5642 5640 5637 5634 5630
5616 5618 5621 5623 5626 5627 5629 5630 5631 5632 5632 5631 5630 5629 5628 5627 5624 5623 5622 5622 5622 5622 5621 5620 5620 5620 5620 5621 5622 5623 5624 5625 5626 5628 5629 5629 5629 5629 5628 5625 5622 5618 5616 5612
5610 5612 5615 5617 5619 5620 5620 5622 5622 5623 5622 5622 5621 5619 5617 5616 5615 5614 5614 5613 5614 5613 5613 5613 5612 5611 5611 5612 5612 5612 5612 5612 5613 5614 5615 5615 5615 5614 5612 5609 5607 5605 5601 5597
5603 5606 5608 5609 5611 5612 5612 5613 5613 5614 5617 5612 5611 5609 5608 5607 5607 5606 5605 5605 5605 5605 5605 5604 5603 5602 5602 5602 5602 5602 5602 5601 5602 5603 5603 5604 5602 5600 5598 5597 5595 5591 5587 5583
5597 5599 5601 5602 5603 5606 5606 5606 5607 5607 5603 5602 5600 5600 5599 5599 5598 5597 5596 5595 5594 5594 5594 5594 5593 5593 5592 5591 5592 5592 5592 5592 5593 5593 5593 5592 5591 5590 5588 5586 5583 5579 5574 5569
5592 5594 5596 5597 5597 5596 5597 5598 5597 5595 5593 5590 5590 5590 5590 5589 5588 5587 5586 5584 5584 5583 5582 5582 5582 5582 5581 5580 5580 5582 5582 5582 5583 5583 5582 5582 5582 5580 5578 5576 5572 5567 5562 5556
5585 5587 5588 5589 5589 5589 5588 5587 5586 5584 5581 5580 5580 5579 5579 5579 5578 5577 5575 5573 5572 5570 5569 5569 5568 5568 5569 5568 5569 5570 5571 5572 5573 5572 5573 5573 5573 5571 5569 5566 5562 5557 5550 5544
5580 5581 5581 5581 5581 5580 5579 5577 5575 5574 5572 5571 5570 5569 5569 5569 5568 5566 5564 5561 5559 5557 5555 5554 5555 5556 5557 5557 5559 5560 5561 5563 5563 5564 5565 5566 5565 5564 5561 5557 5552 5547 5540 5533
5574 5574 5575 5574 5572 5571 5569 5568 5566 5565 5563 5562 5561 5560 5559 5558 5557 5554 5553 5551 5549 5548 5546 5545 5545 5547 5548 5550 5551 5553 5555 5556 5557 5559 5561 5560 5559 5557 5555 5551 5544 5537 5532 5521